Weather History for KMKE - October, 2012

Change the Weather History Date:

Thursday, October 11, 2012

  Actual Average Record
Temperature  
Mean Temperature 53 °F 53 °F  
Max Temperature 65 °F 61 °F 86 °F (1928)
Min Temperature 40 °F 45 °F 25 °F (1964)
Degree Days  
Heating Degree Days 12 12  
Month to date heating degree days 149 117  
Since 1 July heating degree days 287 269  
Cooling Degree Days 0 0  
Month to date cooling degree days 0 3  
Year to date cooling degree days 1041 637  
Growing Degree Days 2 (Base 50)    
Moisture  
Dew Point 31 °F    
Average Humidity 48    
Maximum Humidity 64    
Minimum Humidity 32    
Precipitation  
Precipitation 0.03 in 0.09 in 1.01 in (1912)
Month to date precipitation 0.18 0.97  
Year to date precipitation 22.34 28.33  
Snow  
Snow 0.00 in 0.10 in 0.10 in (1909)
Month to date snowfall 0.0 0.1  
Since 1 July snowfall 0.0 0.1  
Since 1 September snowfall 0.0 0.1  
Snow Depth 0.00 in    
Sea Level Pressure  
Sea Level Pressure 30.09 in    
Wind  
Wind Speed 15 mph (West)    
Max Wind Speed 30 mph    
Max Gust Speed 40 mph    
Visibility 10 miles    
Events Rain    
T = Trace of Precipitation, MM = Missing Value Source: NWS Daily Summary

Daily Weather History Graph

Daily Weather History Graph

Search for Another Location

Airport or City:

Trip Planner

Search our weather history database for the weather conditions in past years. The results will help you decide how hot, cold, wet, or windy it might be!

Date:

Astronomy

Oct. 11, 2012 Rise Set
Actual Time 7:00 AM CDT 6:14 PM CDT
Civil Twilight 6:32 AM CDT 6:43 PM CDT
Nautical Twilight 5:59 AM CDT 7:15 PM CDT
Astronomical Twilight 5:26 AM CDT 7:48 PM CDT
Moon 2:33 AM CDT (10/11) 3:56 PM CDT (10/11)
Length of Visible Light 12h 10m
Length of Day
11h 13m
Waning Crescent, 18% of the Moon is Illuminated
Oct 11
Waning Crescent
Oct 15
New
Oct 21
First Quarter
Oct 29
Full
Nov 6
Last Quarter

Hourly Weather History & Observations

Time (CDT) Temp. Windchill Dew Point Humidity Pressure Visibility Wind Dir Wind Speed Gust Speed Precip Events Conditions
12:52 AM 39.9 °F 34.5 °F 28.0 °F 63% 30.14 in 10.0 mi SW 8.1 mph - N/A   Mostly Cloudy
1:52 AM 39.2 °F 34.2 °F 28.4 °F 65% 30.11 in 10.0 mi SSW 6.9 mph - N/A   Overcast
2:52 AM 41.0 °F 35.2 °F 28.0 °F 60% 30.10 in 10.0 mi SSW 9.2 mph - N/A   Overcast
3:52 AM 42.1 °F 35.7 °F 28.0 °F 58% 30.09 in 10.0 mi SSW 11.5 mph - N/A   Mostly Cloudy
4:52 AM 42.1 °F 35.2 °F 28.0 °F 58% 30.07 in 10.0 mi SSW 12.7 mph - N/A   Mostly Cloudy
5:52 AM 43.0 °F 35.4 °F 28.0 °F 56% 30.05 in 10.0 mi SW 16.1 mph 24.2 mph N/A   Mostly Cloudy
6:52 AM 44.1 °F 36.8 °F 28.9 °F 55% 30.05 in 10.0 mi SW 16.1 mph - N/A   Mostly Cloudy
7:52 AM 45.0 °F 37.6 °F 30.0 °F 56% 30.03 in 10.0 mi SW 17.3 mph - N/A   Mostly Cloudy
8:52 AM 48.2 °F - 30.2 °F 50% 30.02 in 10.0 mi SW 20.7 mph 29.9 mph N/A   Mostly Cloudy
9:52 AM 53.1 °F - 32.0 °F 45% 30.02 in 10.0 mi SW 20.7 mph 33.4 mph N/A   Mostly Cloudy
10:52 AM 57.0 °F - 32.0 °F 39% 30.02 in 10.0 mi WSW 26.5 mph 38.0 mph N/A   Scattered Clouds
11:52 AM 61.0 °F - 30.9 °F 32% 30.02 in 10.0 mi WSW 18.4 mph 34.5 mph N/A   Partly Cloudy
12:52 PM 62.1 °F - 32.0 °F 32% 30.02 in 10.0 mi West 19.6 mph 26.5 mph N/A   Partly Cloudy
1:52 PM 63.0 °F - 33.1 °F 33% 30.02 in 10.0 mi West 16.1 mph 24.2 mph N/A   Scattered Clouds
2:52 PM 62.6 °F - 33.8 °F 34% 30.01 in 10.0 mi West 12.7 mph 24.2 mph N/A   Mostly Cloudy
3:28 PM 57.2 °F - 39.2 °F 51% 30.03 in 10.0 mi WNW 15.0 mph - N/A   Mostly Cloudy
3:52 PM 57.9 °F - 37.0 °F 46% 30.06 in 10.0 mi NW 17.3 mph - N/A   Mostly Cloudy
4:52 PM 57.0 °F - 36.0 °F 45% 30.07 in 10.0 mi North 16.1 mph 20.7 mph 0.00 in Rain Light Rain
5:52 PM 50.0 °F - 37.4 °F 62% 30.12 in 10.0 mi NNW 13.8 mph 18.4 mph N/A Rain Light Rain
6:52 PM 48.0 °F - 36.0 °F 63% 30.16 in 10.0 mi NNW 13.8 mph - 0.02 in Rain Light Rain
7:52 PM 48.2 °F - 35.6 °F 62% 30.15 in 10.0 mi NNW 9.2 mph - N/A   Overcast
8:52 PM 48.9 °F - 33.1 °F 54% 30.21 in 10.0 mi NNW 8.1 mph - 0.00 in   Overcast
9:52 PM 48.2 °F - 32.0 °F 54% 30.21 in 10.0 mi NNW 5.8 mph - N/A   Overcast
10:52 PM 46.0 °F 39.9 °F 25.0 °F 44% 30.26 in 10.0 mi North 13.8 mph 23.0 mph N/A   Mostly Cloudy
11:52 PM 44.6 °F 38.4 °F 24.8 °F 46% 30.29 in 10.0 mi North 12.7 mph - N/A   Mostly Cloudy